User: anonymous   Login
Location: Newark
(45.4422°N, 16.2769°E)
Time: 14:32:37
(UTC+00:00)
Language:

Courier 1B - Orbit

View from above orbital plane
View from above orbital plane
View from above satellite
View from above satellite

Ground track
Ground track

The orbit data is extracted from the following two-line orbital elements,

1    58U 60013A   21020.16519585  .00000091  00000-0  13210-4 0  9999
2    58  28.3282  75.1924 0165090  63.4495 298.2871 13.46325303968370
Epoch (UTC): 20 January 2021 03:57:52
Eccentricity: 0.0165090
inclination: 28.3282°
perigee height: 962 km
apogee height: 1209 km
right ascension of ascending node: 75.1924°
argument of perigee: 63.4495°
revolutions per day: 13.46325303
mean anomaly at epoch: 298.2871°
orbit number at epoch: 96837

The dashed part of the orbit path shows where the satellite is in the earth's shadow,  

DLR